| time (UTC) | temp F | wind direction | speed MPH | gust MPH | rain 1hr in | rain 24hr in | rain mn in | humidity % | barometer mb |
| 20260510032009 | 78 | 115 | 8.0 | 15.0 | 0.00 | 0.00 | 0.00 | 93 | 1012.7 |
| 20260510031518 | 78 | 134 | 6.0 | 12.0 | 0.00 | 0.00 | 0.00 | 93 | 1012.6 |
| 20260510031007 | 78 | 94 | 5.0 | 13.0 | 0.00 | 0.00 | 0.00 | 93 | 1012.7 |
| 20260510030510 | 78 | 98 | 6.0 | 14.0 | 0.00 | 0.00 | 0.00 | 92 | 1012.7 |
| 20260510030021 | 78 | 95 | 9.0 | 14.0 | 0.00 | 0.00 | 0.00 | 92 | 1012.7 |
| 20260510025508 | 78 | 74 | 7.0 | 12.0 | 0.00 | 0.00 | 0.00 | 92 | 1012.5 |
| 20260510025012 | 78 | 91 | 8.0 | 12.0 | 0.00 | 0.00 | 0.00 | 92 | 1012.4 |
| 20260510024528 | 78 | 88 | 7.0 | 13.0 | 0.00 | 0.00 | 0.00 | 92 | 1012.4 |
| 20260510024007 | 78 | 102 | 5.0 | 13.0 | 0.00 | 0.00 | 0.00 | 92 | 1012.0 |
| 20260510023508 | 78 | 130 | 6.0 | 12.0 | 0.00 | 0.00 | 0.00 | 92 | 1011.9 |
| 20260510023041 | 78 | 113 | 5.0 | 12.0 | 0.00 | 0.00 | 0.00 | 92 | 1012.0 |
| 20260510022507 | 78 | 119 | 6.0 | 12.0 | 0.00 | 0.00 | 0.00 | 91 | 1012.0 |
| 20260510022009 | 78 | 106 | 6.0 | 10.0 | 0.00 | 0.00 | 0.00 | 91 | 1011.6 |
| 20260510021518 | 78 | 134 | 6.0 | 12.0 | 0.00 | 0.00 | 0.00 | 91 | 1011.3 |
| 20260510021004 | 78 | 142 | 6.0 | 12.0 | 0.00 | 0.00 | 0.00 | 91 | 1011.3 |
| 20260510020507 | 78 | 122 | 6.0 | 12.0 | 0.00 | 0.00 | 0.00 | 91 | 1011.2 |
| 20260510020004 | 78 | 117 | 3.0 | 9.0 | 0.00 | 0.00 | 0.00 | 90 | 1011.1 |
| 20260510015503 | 78 | 92 | 5.0 | 12.0 | 0.00 | 0.00 | 0.00 | 91 | 1011.1 |
| 20260510015002 | 78 | 93 | 6.0 | 12.0 | 0.00 | 0.00 | 0.00 | 91 | 1011.1 |
| 20260510014504 | 78 | 100 | 4.0 | 9.0 | 0.00 | 0.00 | 0.00 | 91 | 1010.9 |
| 20260510014003 | 78 | 103 | 6.0 | 10.0 | 0.00 | 0.00 | 0.00 | 91 | 1010.7 |
| 20260510013505 | 78 | 84 | 4.0 | 10.0 | 0.00 | 0.00 | 0.00 | 91 | 1010.6 |
| 20260510013012 | 79 | 106 | 5.0 | 10.0 | 0.00 | 0.00 | 0.00 | 91 | 1010.4 |
| 20260510012503 | 79 | 100 | 6.0 | 9.0 | 0.00 | 0.00 | 0.00 | 90 | 1010.2 |
| 20260510012006 | 79 | 122 | 4.0 | 9.0 | 0.00 | 0.00 | 0.00 | 90 | 1010.0 |
| 20260510011521 | 79 | 136 | 2.0 | 7.0 | 0.00 | 0.00 | 0.00 | 90 | 1010.0 |
| 20260510011012 | 79 | 126 | 2.0 | 8.0 | 0.00 | 0.00 | 0.00 | 90 | 1010.1 |
| 20260510010504 | 79 | 148 | 4.0 | 9.0 | 0.00 | 0.00 | 0.00 | 89 | 1010.2 |
| 20260510010023 | 79 | 111 | 3.0 | 9.0 | 0.00 | 0.00 | 0.00 | 89 | 1010.2 |
| 20260510005508 | 79 | 123 | 2.0 | 10.0 | 0.00 | 0.00 | 0.00 | 89 | 1009.9 |
| 20260510005008 | 79 | 141 | 4.0 | 10.0 | 0.00 | 0.00 | 0.00 | 89 | 1009.7 |
| 20260510004506 | 80 | 181 | 5.0 | 9.0 | 0.00 | 0.00 | 0.00 | 89 | 1009.8 |
| 20260510004003 | 80 | 144 | 3.0 | 8.0 | 0.00 | 0.00 | 0.00 | 88 | 1009.8 |
| 20260510003504 | 80 | 163 | 2.0 | 8.0 | 0.00 | 0.00 | 0.00 | 88 | 1009.7 |
| 20260510003008 | 80 | 133 | 2.0 | 12.0 | 0.00 | 0.00 | 0.00 | 88 | 1009.8 |
| 20260510002502 | 80 | 159 | 4.0 | 14.0 | 0.00 | 0.00 | 0.00 | 88 | 1009.7 |
| 20260510002005 | 80 | 126 | 6.0 | 14.0 | 0.00 | 0.00 | 0.00 | 88 | 1009.8 |
| 20260510001511 | 81 | 135 | 7.0 | 14.0 | 0.00 | 0.00 | 0.00 | 87 | 1009.6 |
| 20260510001004 | 81 | 136 | 7.0 | 14.0 | 0.00 | 0.00 | 0.00 | 87 | 1009.6 |
| 20260510000505 | 81 | 128 | 6.0 | 11.0 | 0.00 | 0.00 | 0.00 | 87 | 1009.7 |
| 20260510000016 | 81 | 148 | 4.0 | 13.0 | 0.00 | 0.00 | 0.00 | 87 | 1009.6 |
| 20260509235507 | 81 | 117 | 7.0 | 15.0 | 0.00 | 0.00 | 0.00 | 87 | 1009.7 |
| 20260509235006 | 81 | 143 | 8.0 | 16.0 | 0.00 | 0.00 | 0.00 | 87 | 1009.7 |
| 20260509234523 | 81 | 157 | 8.0 | 16.0 | 0.00 | 0.00 | 0.00 | 86 | 1009.7 |
| 20260509234006 | 82 | 142 | 6.0 | 12.0 | 0.00 | 0.00 | 0.00 | 85 | 1009.7 |
| 20260509233508 | 82 | 91 | 6.0 | 14.0 | 0.00 | 0.00 | 0.00 | 84 | 1009.7 |
| 20260509233028 | 82 | 121 | 6.0 | 14.0 | 0.00 | 0.00 | 0.00 | 84 | 1009.6 |
| 20260509232503 | 83 | 125 | 5.0 | 14.0 | 0.00 | 0.00 | 0.00 | 84 | 1009.6 |
| 20260509232003 | 83 | 107 | 9.0 | 14.0 | 0.00 | 0.00 | 0.00 | 84 | 1009.7 |
| 20260509231508 | 83 | 132 | 5.0 | 11.0 | 0.00 | 0.00 | 0.00 | 83 | 1009.5 |
| 20260509231003 | 83 | 98 | 4.0 | 9.0 | 0.00 | 0.00 | 0.00 | 82 | 1009.6 |
| 20260509230507 | 83 | 144 | 5.0 | 11.0 | 0.00 | 0.00 | 0.00 | 82 | 1009.6 |
| 20260509230013 | 83 | 126 | 5.0 | 11.0 | 0.00 | 0.00 | 0.00 | 82 | 1009.6 |
| 20260509225504 | 84 | 161 | 5.0 | 10.0 | 0.00 | 0.00 | 0.00 | 82 | 1009.5 |
| 20260509225004 | 84 | 148 | 3.0 | 10.0 | 0.00 | 0.00 | 0.00 | 81 | 1009.3 |
| 20260509224519 | 84 | 144 | 6.0 | 9.0 | 0.00 | 0.00 | 0.00 | 81 | 1009.4 |
| 20260509224006 | 84 | 125 | 4.0 | 8.0 | 0.00 | 0.00 | 0.00 | 81 | 1009.4 |
| 20260509223511 | 84 | 112 | 4.0 | 9.0 | 0.00 | 0.00 | 0.00 | 81 | 1009.4 |
| 20260509223026 | 84 | 154 | 6.0 | 11.0 | 0.00 | 0.00 | 0.00 | 81 | 1009.3 |
| 20260509222506 | 84 | 134 | 6.0 | 11.0 | 0.00 | 0.00 | 0.00 | 80 | 1009.3 |
| 20260509222009 | 85 | 107 | 5.0 | 10.0 | 0.00 | 0.00 | 0.00 | 78 | 1009.2 |
| 20260509221526 | 85 | 163 | 4.0 | 9.0 | 0.00 | 0.00 | 0.00 | 77 | 1009.1 |
| 20260509221004 | 85 | 172 | 2.0 | 10.0 | 0.00 | 0.00 | 0.00 | 78 | 1009.1 |
| 20260509220504 | 85 | 104 | 3.0 | 10.0 | 0.00 | 0.00 | 0.00 | 79 | 1009.1 |
| 20260509220011 | 85 | 148 | 4.0 | 8.0 | 0.00 | 0.00 | 0.00 | 78 | 1009.0 |
| 20260509215504 | 85 | 140 | 3.0 | 7.0 | 0.00 | 0.01 | 0.00 | 78 | 1009.0 |
| 20260509215004 | 85 | 124 | 4.0 | 10.0 | 0.00 | 0.01 | 0.00 | 77 | 1009.0 |
| 20260509214515 | 86 | 136 | 5.0 | 10.0 | 0.00 | 0.01 | 0.00 | 77 | 1009.0 |
| 20260509214007 | 86 | 148 | 3.0 | 9.0 | 0.00 | 0.01 | 0.00 | 77 | 1009.0 |
| 20260509213508 | 86 | 154 | 3.0 | 9.0 | 0.00 | 0.01 | 0.00 | 76 | 1008.9 |
| 20260509213024 | 86 | 138 | 3.0 | 9.0 | 0.00 | 0.01 | 0.00 | 76 | 1008.9 |
| 20260509212509 | 86 | 118 | 4.0 | 7.0 | 0.00 | 0.01 | 0.00 | 77 | 1009.0 |
| 20260509212013 | 85 | 145 | 3.0 | 6.0 | 0.00 | 0.01 | 0.00 | 77 | 1009.2 |
| 20260509211547 | 85 | 127 | 2.0 | 6.0 | 0.00 | 0.01 | 0.00 | 77 | 1009.2 |
| 20260509211006 | 85 | 101 | 3.0 | 6.0 | 0.00 | 0.01 | 0.00 | 76 | 1009.1 |
| 20260509210508 | 85 | 138 | 4.0 | 7.0 | 0.00 | 0.01 | 0.00 | 77 | 1009.1 |
| 20260509210026 | 85 | 103 | 2.0 | 7.0 | 0.00 | 0.01 | 0.00 | 78 | 1009.2 |
| 20260509205503 | 85 | 107 | 4.0 | 7.0 | 0.00 | 0.01 | 0.00 | 77 | 1009.0 |
| 20260509205007 | 85 | 119 | 2.0 | 6.0 | 0.00 | 0.01 | 0.00 | 77 | 1009.0 |
| 20260509204511 | 85 | 142 | 3.0 | 6.0 | 0.00 | 0.01 | 0.00 | 77 | 1009.0 |
| 20260509204004 | 85 | 117 | 3.0 | 6.0 | 0.00 | 0.01 | 0.00 | 78 | 1009.1 |
| 20260509203504 | 84 | 190 | 3.0 | 7.0 | 0.00 | 0.01 | 0.00 | 79 | 1009.0 |
| 20260509203033 | 84 | 158 | 3.0 | 7.0 | 0.00 | 0.01 | 0.00 | 81 | 1009.1 |
| 20260509202509 | 84 | 136 | 4.0 | 7.0 | 0.00 | 0.01 | 0.00 | 79 | 1009.1 |
| 20260509202012 | 84 | 128 | 2.0 | 8.0 | 0.00 | 0.01 | 0.00 | 79 | 1009.2 |
| 20260509201521 | 84 | 128 | 3.0 | 8.0 | 0.00 | 0.01 | 0.00 | 81 | 1009.3 |
| 20260509201007 | 84 | 117 | 3.0 | 9.0 | 0.00 | 0.01 | 0.00 | 80 | 1009.4 |
| 20260509200507 | 84 | 129 | 4.0 | 9.0 | 0.00 | 0.01 | 0.00 | 80 | 1009.4 |
| 20260509200026 | 85 | 122 | 5.0 | 9.0 | 0.00 | 0.01 | 0.00 | 80 | 1009.5 |
| 20260509195507 | 85 | 123 | 3.0 | 10.0 | 0.00 | 0.01 | 0.00 | 79 | 1009.4 |
| 20260509195007 | 85 | 138 | 4.0 | 10.0 | 0.00 | 0.01 | 0.00 | 79 | 1009.6 |
| 20260509194507 | 85 | 162 | 3.0 | 7.0 | 0.00 | 0.01 | 0.00 | 77 | 1009.6 |
| 20260509194005 | 84 | 29 | 0.0 | 3.0 | 0.00 | 0.01 | 0.00 | 73 | 1009.7 |
| 20260509193504 | 84 | 29 | 1.0 | 4.0 | 0.00 | 0.01 | 0.00 | 74 | 1009.8 |
| 20260509193013 | 84 | 29 | 1.0 | 4.0 | 0.00 | 0.01 | 0.00 | 74 | 1009.9 |
| 20260509192503 | 83 | 29 | 1.0 | 4.0 | 0.00 | 0.01 | 0.00 | 75 | 1009.8 |
| 20260509192002 | 83 | 29 | 0.0 | 5.0 | 0.00 | 0.01 | 0.00 | 76 | 1009.9 |
| 20260509191503 | 83 | 29 | 1.0 | 5.0 | 0.00 | 0.01 | 0.00 | 77 | 1009.9 |
| 20260509191003 | 83 | 22 | 4.0 | 8.0 | 0.00 | 0.01 | 0.00 | 75 | 1010.0 |
| 20260509190502 | 83 | 350 | 2.0 | 8.0 | 0.00 | 0.01 | 0.00 | 77 | 1009.9 |
| 20260509190006 | 84 | 355 | 5.0 | 9.0 | 0.00 | 0.01 | 0.00 | 78 | 1009.8 |
| 20260509185504 | 83 | 26 | 5.0 | 9.0 | 0.00 | 0.01 | 0.00 | 78 | 1009.8 |
| 20260509185003 | 83 | 5 | 2.0 | 7.0 | 0.00 | 0.01 | 0.00 | 77 | 1009.9 |
| 20260509184509 | 83 | 40 | 2.0 | 7.0 | 0.00 | 0.01 | 0.00 | 78 | 1009.9 |
| 20260509184003 | 83 | 352 | 3.0 | 7.0 | 0.00 | 0.01 | 0.00 | 81 | 1010.0 |
| 20260509183503 | 82 | 333 | 3.0 | 8.0 | 0.00 | 0.01 | 0.00 | 83 | 1010.0 |
| 20260509183018 | 82 | 332 | 2.0 | 9.0 | 0.00 | 0.01 | 0.00 | 83 | 1010.1 |
| 20260509182503 | 82 | 9 | 3.0 | 9.0 | 0.00 | 0.01 | 0.00 | 83 | 1010.1 |
| 20260509182003 | 82 | 37 | 3.0 | 7.0 | 0.00 | 0.01 | 0.00 | 83 | 1010.1 |
| 20260509181518 | 82 | 15 | 3.0 | 6.0 | 0.00 | 0.01 | 0.00 | 83 | 1010.3 |
| 20260509181004 | 82 | 65 | 1.0 | 4.0 | 0.00 | 0.01 | 0.00 | 84 | 1010.2 |
| 20260509180502 | 82 | 100 | 1.0 | 4.0 | 0.00 | 0.01 | 0.00 | 85 | 1010.2 |
| 20260509180005 | 81 | 49 | 2.0 | 6.0 | 0.00 | 0.01 | 0.00 | 84 | 1010.4 |
| 20260509175503 | 82 | 139 | 2.0 | 7.0 | 0.00 | 0.01 | 0.00 | 84 | 1010.5 |
| 20260509175003 | 82 | 61 | 1.0 | 7.0 | 0.00 | 0.01 | 0.00 | 84 | 1010.8 |
| 20260509174508 | 82 | 131 | 2.0 | 5.0 | 0.00 | 0.01 | 0.00 | 84 | 1010.8 |
| 20260509174004 | 82 | 157 | 2.0 | 5.0 | 0.00 | 0.01 | 0.00 | 84 | 1011.0 |
| 20260509173503 | 82 | 198 | 2.0 | 7.0 | 0.00 | 0.01 | 0.00 | 84 | 1011.1 |
| 20260509173012 | 82 | 180 | 3.0 | 7.0 | 0.00 | 0.01 | 0.00 | 85 | 1011.2 |
| 20260509172504 | 82 | 163 | 3.0 | 7.0 | 0.00 | 0.01 | 0.00 | 85 | 1011.2 |
| 20260509172004 | 82 | 202 | 3.0 | 5.0 | 0.00 | 0.01 | 0.00 | 84 | 1011.1 |
| 20260509171516 | 82 | 182 | 1.0 | 5.0 | 0.00 | 0.01 | 0.00 | 85 | 1010.9 |
| 20260509171004 | 82 | 160 | 2.0 | 6.0 | 0.00 | 0.01 | 0.00 | 86 | 1010.9 |
| 20260509170505 | 81 | 168 | 4.0 | 6.0 | 0.00 | 0.01 | 0.00 | 86 | 1010.9 |
| 20260509170018 | 81 | 220 | 2.0 | 6.0 | 0.00 | 0.01 | 0.00 | 86 | 1010.9 |
| 20260509165510 | 81 | 227 | 3.0 | 6.0 | 0.00 | 0.01 | 0.00 | 87 | 1010.8 |
| 20260509165008 | 81 | 219 | 2.0 | 6.0 | 0.00 | 0.01 | 0.00 | 87 | 1011.1 |
| 20260509164504 | 81 | 199 | 3.0 | 6.0 | 0.00 | 0.01 | 0.00 | 88 | 1011.4 |
| 20260509164005 | 81 | 225 | 2.0 | 7.0 | 0.00 | 0.01 | 0.00 | 88 | 1011.2 |
| 20260509163503 | 80 | 156 | 3.0 | 7.0 | 0.00 | 0.01 | 0.00 | 89 | 1011.0 |
| 20260509163007 | 80 | 272 | 2.0 | 7.0 | 0.00 | 0.01 | 0.00 | 89 | 1010.9 |
| 20260509162504 | 80 | 226 | 2.0 | 6.0 | 0.00 | 0.01 | 0.00 | 91 | 1011.0 |
| 20260509162003 | 80 | 202 | 2.0 | 5.0 | 0.00 | 0.01 | 0.00 | 91 | 1011.2 |
| 20260509161514 | 79 | 248 | 2.0 | 5.0 | 0.00 | 0.01 | 0.00 | 92 | 1011.1 |
| 20260509161003 | 79 | 205 | 4.0 | 5.0 | 0.00 | 0.01 | 0.00 | 93 | 1011.0 |
| 20260509160504 | 79 | 225 | 3.0 | 5.0 | 0.00 | 0.01 | 0.00 | 93 | 1011.0 |
| 20260509160016 | 78 | 176 | 1.0 | 4.0 | 0.00 | 0.01 | 0.00 | 93 | 1010.9 |
| 20260509155504 | 78 | 176 | 1.0 | 4.0 | 0.00 | 0.01 | 0.00 | 93 | 1011.2 |
| 20260509155008 | 78 | 176 | 1.0 | 4.0 | 0.00 | 0.01 | 0.00 | 93 | 1011.1 |
| 20260509154520 | 78 | 168 | 2.0 | 5.0 | 0.00 | 0.01 | 0.00 | 93 | 1010.9 |
| 20260509154007 | 78 | 136 | 2.0 | 5.0 | 0.00 | 0.01 | 0.00 | 93 | 1010.8 |
| 20260509153509 | 78 | 215 | 2.0 | 11.0 | 0.00 | 0.01 | 0.00 | 93 | 1011.2 |
| 20260509153011 | 78 | 135 | 4.0 | 11.0 | 0.00 | 0.01 | 0.00 | 93 | 1010.6 |
| 20260509152503 | 78 | 158 | 4.0 | 8.0 | 0.00 | 0.01 | 0.00 | 93 | 1010.3 |
| 20260509152004 | 78 | 151 | 3.0 | 7.0 | 0.00 | 0.01 | 0.00 | 93 | 1010.8 |
| 20260509151510 | 78 | 204 | 1.0 | 2.0 | 0.00 | 0.01 | 0.00 | 94 | 1011.3 |
| 20260509151004 | 78 | 204 | 0.0 | 2.0 | 0.00 | 0.01 | 0.00 | 94 | 1011.1 |
| 20260509150503 | 78 | 204 | 0.0 | 2.0 | 0.00 | 0.01 | 0.00 | 94 | 1011.2 |
| 20260509150012 | 78 | 204 | 0.0 | 3.0 | 0.00 | 0.01 | 0.00 | 94 | 1011.2 |
| 20260509145508 | 78 | 204 | 0.0 | 4.0 | 0.00 | 0.01 | 0.00 | 94 | 1011.3 |
| 20260509145014 | 78 | 204 | 1.0 | 4.0 | 0.00 | 0.01 | 0.00 | 94 | 1011.3 |
| 20260509144519 | 78 | 242 | 0.0 | 5.0 | 0.00 | 0.01 | 0.00 | 94 | 1011.3 |
| 20260509144007 | 78 | 242 | 3.0 | 5.0 | 0.00 | 0.01 | 0.00 | 94 | 1011.3 |
| 20260509143506 | 78 | 217 | 2.0 | 6.0 | 0.00 | 0.01 | 0.00 | 94 | 1011.3 |
| 20260509143028 | 78 | 210 | 2.0 | 6.0 | 0.00 | 0.01 | 0.00 | 94 | 1011.3 |
| 20260509142509 | 78 | 187 | 3.0 | 5.0 | 0.00 | 0.01 | 0.00 | 94 | 1011.4 |
| 20260509142007 | 78 | 196 | 3.0 | 5.0 | 0.00 | 0.01 | 0.00 | 94 | 1011.1 |
| 20260509141505 | 78 | 190 | 2.0 | 7.0 | 0.00 | 0.01 | 0.00 | 94 | 1010.9 |
| 20260509141006 | 78 | 196 | 1.0 | 7.0 | 0.00 | 0.01 | 0.00 | 95 | 1010.7 |
| 20260509140503 | 78 | 198 | 3.0 | 7.0 | 0.00 | 0.01 | 0.00 | 95 | 1010.8 |
| 20260509140012 | 78 | 194 | 3.0 | 7.0 | 0.00 | 0.01 | 0.00 | 95 | 1010.9 |
| 20260509135505 | 78 | 179 | 3.0 | 8.0 | 0.00 | 0.01 | 0.00 | 95 | 1011.1 |
| 20260509135007 | 78 | 218 | 2.0 | 8.0 | 0.00 | 0.01 | 0.00 | 95 | 1011.2 |
| 20260509134514 | 78 | 147 | 3.0 | 7.0 | 0.00 | 0.01 | 0.00 | 95 | 1011.2 |
| 20260509134005 | 78 | 198 | 4.0 | 7.0 | 0.00 | 0.01 | 0.00 | 96 | 1010.8 |
| 20260509133503 | 78 | 188 | 2.0 | 6.0 | 0.00 | 0.01 | 0.00 | 96 | 1010.8 |
| 20260509133022 | 78 | 204 | 4.0 | 6.0 | 0.00 | 0.01 | 0.00 | 95 | 1010.8 |
| 20260509132510 | 78 | 194 | 3.0 | 6.0 | 0.00 | 0.01 | 0.00 | 96 | 1010.7 |
| 20260509132007 | 78 | 199 | 2.0 | 4.0 | 0.00 | 0.01 | 0.00 | 96 | 1010.6 |
| 20260509131530 | 77 | 32 | 2.0 | 3.0 | 0.00 | 0.01 | 0.00 | 96 | 1010.7 |
| 20260509131010 | 77 | 32 | 0.0 | 2.0 | 0.00 | 0.01 | 0.00 | 96 | 1010.7 |
| 20260509130510 | 77 | 32 | 0.0 | 2.0 | 0.00 | 0.01 | 0.00 | 96 | 1010.9 |
| 20260509130027 | 77 | 32 | 1.0 | 2.0 | 0.00 | 0.01 | 0.00 | 96 | 1010.9 |
| 20260509125504 | 77 | 32 | 0.0 | 2.0 | 0.00 | 0.01 | 0.00 | 96 | 1010.7 |
| 20260509125007 | 76 | 32 | 0.0 | 2.0 | 0.00 | 0.01 | 0.00 | 95 | 1010.6 |
| 20260509124510 | 76 | 32 | 0.0 | 2.0 | 0.00 | 0.01 | 0.00 | 96 | 1010.7 |
| 20260509124003 | 76 | 32 | 0.0 | 0.0 | 0.00 | 0.01 | 0.00 | 95 | 1010.7 |
| 20260509123503 | 76 | 32 | 0.0 | 2.0 | 0.00 | 0.01 | 0.00 | 95 | 1010.7 |
| 20260509123017 | 76 | 32 | 0.0 | 3.0 | 0.00 | 0.01 | 0.00 | 96 | 1010.8 |
| 20260509122504 | 76 | 32 | 1.0 | 3.0 | 0.00 | 0.01 | 0.00 | 95 | 1010.9 |
| 20260509122006 | 76 | 32 | 1.0 | 3.0 | 0.00 | 0.01 | 0.00 | 95 | 1011.0 |
| 20260509121523 | 76 | 32 | 0.0 | 1.0 | 0.00 | 0.01 | 0.00 | 95 | 1011.2 |
| 20260509121007 | 76 | 32 | 0.0 | 2.0 | 0.00 | 0.01 | 0.00 | 95 | 1011.1 |
| 20260509120507 | 76 | 32 | 0.0 | 4.0 | 0.00 | 0.01 | 0.00 | 95 | 1011.2 |
| 20260509120023 | 76 | 32 | 1.0 | 4.0 | 0.00 | 0.01 | 0.00 | 95 | 1011.1 |
| 20260509115509 | 76 | 5 | 2.0 | 4.0 | 0.00 | 0.01 | 0.00 | 95 | 1011.1 |
| 20260509115009 | 76 | 5 | 2.0 | 4.0 | 0.00 | 0.01 | 0.00 | 95 | 1010.9 |
| 20260509114525 | 76 | 150 | 1.0 | 3.0 | 0.00 | 0.01 | 0.00 | 95 | 1010.7 |
| 20260509114004 | 76 | 150 | 1.0 | 3.0 | 0.00 | 0.01 | 0.00 | 95 | 1010.8 |
| 20260509113502 | 76 | 150 | 0.0 | 0.0 | 0.00 | 0.01 | 0.00 | 95 | 1010.7 |
| 20260509113016 | 76 | 150 | 0.0 | 0.0 | 0.00 | 0.01 | 0.00 | 95 | 1010.3 |
| 20260509112506 | 76 | 150 | 0.0 | 0.0 | 0.00 | 0.01 | 0.00 | 95 | 1010.5 |
| 20260509112006 | 76 | 150 | 0.0 | 0.0 | 0.00 | 0.01 | 0.00 | 95 | 1010.5 |
| 20260509111518 | 76 | 150 | 0.0 | 0.0 | 0.00 | 0.01 | 0.00 | 95 | 1010.4 |
| 20260509111006 | 76 | 150 | 0.0 | 1.0 | 0.00 | 0.01 | 0.00 | 95 | 1010.3 |
| 20260509110506 | 76 | 150 | 0.0 | 3.0 | 0.00 | 0.01 | 0.00 | 95 | 1010.3 |
| 20260509110024 | 76 | 150 | 0.0 | 3.0 | 0.00 | 0.01 | 0.00 | 95 | 1010.2 |
| 20260509105507 | 76 | 150 | 1.0 | 3.0 | 0.00 | 0.01 | 0.00 | 95 | 1009.9 |
| 20260509105007 | 76 | 150 | 1.0 | 2.0 | 0.00 | 0.01 | 0.00 | 95 | 1010.1 |
| 20260509104508 | 76 | 150 | 0.0 | 3.0 | 0.00 | 0.01 | 0.00 | 95 | 1010.0 |
| 20260509104005 | 76 | 150 | 1.0 | 3.0 | 0.00 | 0.01 | 0.00 | 95 | 1010.1 |
| 20260509103504 | 76 | 150 | 1.0 | 5.0 | 0.00 | 0.01 | 0.00 | 95 | 1010.1 |
| 20260509103013 | 76 | 150 | 1.0 | 5.0 | 0.00 | 0.01 | 0.00 | 95 | 1010.0 |
| 20260509102504 | 76 | 158 | 1.0 | 4.0 | 0.00 | 0.01 | 0.00 | 95 | 1010.0 |
| 20260509102006 | 77 | 136 | 0.0 | 4.0 | 0.00 | 0.01 | 0.00 | 95 | 1010.0 |
| 20260509101516 | 77 | 119 | 1.0 | 4.0 | 0.00 | 0.01 | 0.00 | 95 | 1010.0 |
| 20260509101005 | 76 | 190 | 2.0 | 4.0 | 0.00 | 0.01 | 0.00 | 95 | 1009.9 |
| 20260509100502 | 76 | 138 | 1.0 | 5.0 | 0.00 | 0.01 | 0.00 | 95 | 1009.8 |
| 20260509100004 | 77 | 139 | 2.0 | 5.0 | 0.00 | 0.01 | 0.00 | 95 | 1009.9 |
| 20260509095503 | 77 | 144 | 2.0 | 6.0 | 0.00 | 0.01 | 0.00 | 95 | 1010.0 |
| 20260509095004 | 77 | 177 | 2.0 | 6.0 | 0.00 | 0.01 | 0.00 | 95 | 1009.9 |
| 20260509094505 | 77 | 159 | 2.0 | 7.0 | 0.00 | 0.01 | 0.00 | 95 | 1009.9 |
| 20260509094003 | 76 | 132 | 2.0 | 7.0 | 0.00 | 0.01 | 0.00 | 95 | 1009.8 |
| 20260509093505 | 76 | 165 | 3.0 | 7.0 | 0.00 | 0.01 | 0.00 | 95 | 1009.6 |
| 20260509093007 | 76 | 159 | 2.0 | 9.0 | 0.00 | 0.01 | 0.00 | 95 | 1009.5 |
| 20260509092504 | 76 | 128 | 2.0 | 9.0 | 0.00 | 0.01 | 0.00 | 95 | 1009.5 |
| 20260509092004 | 76 | 150 | 1.0 | 7.0 | 0.00 | 0.01 | 0.00 | 95 | 1009.4 |
| 20260509091520 | 76 | 136 | 2.0 | 7.0 | 0.00 | 0.01 | 0.00 | 95 | 1009.4 |
| 20260509091006 | 76 | 106 | 3.0 | 7.0 | 0.00 | 0.01 | 0.00 | 95 | 1009.4 |
| 20260509090508 | 76 | 153 | 2.0 | 6.0 | 0.00 | 0.01 | 0.00 | 95 | 1009.4 |
| 20260509090020 | 76 | 130 | 2.0 | 5.0 | 0.00 | 0.01 | 0.00 | 95 | 1009.4 |
| 20260509085506 | 76 | 135 | 2.0 | 5.0 | 0.00 | 0.01 | 0.00 | 95 | 1009.7 |
| 20260509085003 | 77 | 148 | 0.0 | 4.0 | 0.00 | 0.01 | 0.00 | 95 | 1009.7 |
| 20260509084507 | 76 | 144 | 1.0 | 4.0 | 0.00 | 0.01 | 0.00 | 95 | 1009.8 |
| 20260509084003 | 77 | 144 | 1.0 | 4.0 | 0.00 | 0.01 | 0.00 | 95 | 1009.9 |
| 20260509083504 | 77 | 154 | 1.0 | 4.0 | 0.00 | 0.01 | 0.00 | 95 | 1009.9 |
| 20260509083008 | 77 | 154 | 2.0 | 4.0 | 0.00 | 0.01 | 0.00 | 95 | 1009.9 |
| 20260509082504 | 77 | 146 | 2.0 | 4.0 | 0.00 | 0.01 | 0.00 | 95 | 1010.0 |
| 20260509082004 | 77 | 146 | 0.0 | 4.0 | 0.00 | 0.01 | 0.00 | 95 | 1010.2 |
| 20260509081511 | 77 | 146 | 1.0 | 4.0 | 0.00 | 0.01 | 0.00 | 95 | 1010.3 |
| 20260509081005 | 77 | 146 | 0.0 | 4.0 | 0.00 | 0.01 | 0.00 | 95 | 1010.4 |
| 20260509080504 | 77 | 146 | 1.0 | 4.0 | 0.00 | 0.01 | 0.00 | 95 | 1010.2 |
| 20260509080024 | 77 | 137 | 1.0 | 4.0 | 0.00 | 0.01 | 0.00 | 95 | 1010.2 |
| 20260509075505 | 77 | 181 | 1.0 | 4.0 | 0.00 | 0.01 | 0.00 | 95 | 1010.1 |
| 20260509075010 | 77 | 156 | 1.0 | 7.0 | 0.00 | 0.01 | 0.00 | 94 | 1010.0 |
| 20260509074518 | 77 | 184 | 0.0 | 7.0 | 0.00 | 0.01 | 0.00 | 94 | 1009.9 |
| 20260509074006 | 77 | 146 | 1.0 | 5.0 | 0.00 | 0.01 | 0.00 | 94 | 1009.8 |
| 20260509073503 | 77 | 177 | 2.0 | 7.0 | 0.00 | 0.01 | 0.00 | 94 | 1009.9 |
| 20260509073006 | 77 | 130 | 2.0 | 7.0 | 0.00 | 0.01 | 0.00 | 94 | 1009.9 |
| 20260509072504 | 77 | 102 | 2.0 | 8.0 | 0.00 | 0.01 | 0.00 | 94 | 1010.0 |
| 20260509072004 | 77 | 156 | 3.0 | 8.0 | 0.00 | 0.01 | 0.00 | 94 | 1010.1 |
| 20260509071508 | 77 | 162 | 3.0 | 7.0 | 0.00 | 0.01 | 0.00 | 94 | 1010.2 |
| 20260509071005 | 77 | 132 | 3.0 | 7.0 | 0.00 | 0.01 | 0.00 | 94 | 1010.2 |
| 20260509070506 | 77 | 133 | 3.0 | 9.0 | 0.00 | 0.01 | 0.00 | 94 | 1010.1 |
| 20260509070011 | 77 | 143 | 3.0 | 9.0 | 0.00 | 0.01 | 0.00 | 94 | 1010.2 |
| 20260509065507 | 77 | 128 | 3.0 | 9.0 | 0.00 | 0.01 | 0.00 | 94 | 1010.1 |
| 20260509065008 | 77 | 144 | 1.0 | 9.0 | 0.00 | 0.01 | 0.00 | 94 | 1010.3 |
| 20260509064517 | 77 | 134 | 1.0 | 8.0 | 0.00 | 0.01 | 0.00 | 94 | 1010.3 |
| 20260509064008 | 77 | 147 | 3.0 | 9.0 | 0.00 | 0.01 | 0.00 | 94 | 1010.4 |
| 20260509063506 | 77 | 148 | 2.0 | 9.0 | 0.00 | 0.01 | 0.00 | 94 | 1010.3 |
| 20260509063029 | 77 | 121 | 4.0 | 9.0 | 0.00 | 0.01 | 0.00 | 94 | 1010.4 |
| 20260509062513 | 77 | 129 | 3.0 | 7.0 | 0.00 | 0.01 | 0.00 | 94 | 1010.2 |
| 20260509062009 | 77 | 122 | 3.0 | 8.0 | 0.00 | 0.01 | 0.00 | 94 | 1010.2 |
| 20260509061505 | 77 | 128 | 2.0 | 8.0 | 0.00 | 0.01 | 0.00 | 94 | 1010.3 |
| 20260509061005 | 77 | 131 | 3.0 | 9.0 | 0.00 | 0.01 | 0.00 | 94 | 1010.2 |
| 20260509060508 | 77 | 146 | 3.0 | 9.0 | 0.00 | 0.01 | 0.00 | 94 | 1010.3 |
| 20260509060015 | 77 | 128 | 4.0 | 9.0 | 0.00 | 0.01 | 0.00 | 94 | 1010.2 |
| 20260509055508 | 77 | 123 | 3.0 | 9.0 | 0.00 | 0.01 | 0.00 | 94 | 1010.3 |
| 20260509055005 | 77 | 150 | 4.0 | 10.0 | 0.00 | 0.01 | 0.00 | 94 | 1010.3 |
| 20260509054526 | 77 | 131 | 4.0 | 10.0 | 0.00 | 0.01 | 0.00 | 94 | 1010.3 |
| 20260509054008 | 77 | 159 | 5.0 | 10.0 | 0.00 | 0.01 | 0.00 | 94 | 1010.3 |
| 20260509053506 | 77 | 114 | 4.0 | 9.0 | 0.00 | 0.01 | 0.00 | 94 | 1010.3 |
| 20260509053022 | 77 | 133 | 5.0 | 9.0 | 0.00 | 0.01 | 0.00 | 94 | 1010.3 |
| 20260509052506 | 77 | 103 | 3.0 | 9.0 | 0.00 | 0.01 | 0.00 | 94 | 1010.4 |
| 20260509052010 | 77 | 136 | 3.0 | 12.0 | 0.00 | 0.01 | 0.00 | 94 | 1010.5 |
| 20260509051524 | 77 | 136 | 4.0 | 12.0 | 0.00 | 0.01 | 0.00 | 94 | 1010.7 |
| 20260509051009 | 77 | 147 | 5.0 | 11.0 | 0.00 | 0.01 | 0.00 | 94 | 1010.8 |
| 20260509050511 | 77 | 136 | 4.0 | 10.0 | 0.00 | 0.01 | 0.00 | 94 | 1010.8 |
| 20260509050012 | 77 | 165 | 4.0 | 9.0 | 0.00 | 0.01 | 0.00 | 94 | 1011.0 |
| 20260509045504 | 77 | 151 | 4.0 | 10.0 | 0.00 | 0.01 | 0.01 | 94 | 1010.9 |
| 20260509045005 | 77 | 127 | 4.0 | 11.0 | 0.00 | 0.01 | 0.01 | 94 | 1010.9 |
| 20260509044514 | 77 | 194 | 3.0 | 11.0 | 0.00 | 0.01 | 0.01 | 94 | 1011.0 |
| 20260509044005 | 77 | 176 | 5.0 | 9.0 | 0.00 | 0.01 | 0.01 | 94 | 1011.2 |
| 20260509043504 | 77 | 103 | 3.0 | 9.0 | 0.00 | 0.01 | 0.01 | 94 | 1011.3 |
| 20260509043036 | 77 | 148 | 2.0 | 10.0 | 0.00 | 0.01 | 0.01 | 94 | 1011.2 |
| 20260509042508 | 77 | 132 | 5.0 | 10.0 | 0.00 | 0.01 | 0.01 | 94 | 1011.2 |
| 20260509042012 | 77 | 170 | 4.0 | 14.0 | 0.00 | 0.01 | 0.01 | 94 | 1011.0 |
| 20260509041522 | 77 | 116 | 5.0 | 14.0 | 0.00 | 0.01 | 0.01 | 94 | 1010.7 |
| 20260509041011 | 77 | 163 | 4.0 | 14.0 | 0.00 | 0.01 | 0.01 | 94 | 1010.7 |
| 20260509040507 | 77 | 128 | 4.0 | 14.0 | 0.00 | 0.01 | 0.01 | 94 | 1010.6 |
| 20260509040026 | 77 | 135 | 6.0 | 14.0 | 0.00 | 0.01 | 0.01 | 94 | 1010.4 |
| 20260509035509 | 77 | 134 | 4.0 | 10.0 | 0.00 | 0.01 | 0.01 | 94 | 1010.5 |
| 20260509035012 | 77 | 136 | 3.0 | 10.0 | 0.00 | 0.01 | 0.01 | 94 | 1010.7 |
| 20260509034513 | 77 | 173 | 3.0 | 11.0 | 0.00 | 0.01 | 0.01 | 94 | 1010.8 |
| 20260509034004 | 77 | 161 | 4.0 | 11.0 | 0.00 | 0.01 | 0.01 | 94 | 1010.7 |
| 20260509033503 | 77 | 128 | 4.0 | 10.0 | 0.00 | 0.01 | 0.01 | 94 | 1010.4 |
| 20260509033013 | 77 | 155 | 3.0 | 10.0 | 0.00 | 0.01 | 0.01 | 94 | 1010.4 |
| 20260509032507 | 77 | 136 | 5.0 | 12.0 | 0.00 | 0.01 | 0.01 | 94 | 1010.3 |